Погода в Ахтубинске

Россия / Астраханская область     48°17′05″N   46°09′51″E
темп.,
°C
ветер,
м/с
пор.,
м/с
влажн.,
%
обл.,
%
осадки,
мм/ч
давл.,
гПа
погр.,
м
29 июля, чт
чт2901:00+26всв333020 0.0 101334
04:00+25в333594 0.0 101344
07:00+25ююв233375 0.0 101377
10:00+32юз3322100 0.0 1013867
13:00+34з531910 0.0 10123434
16:00+34з551982 0.0 10112103
19:00+34зсз242088 0.0 10101222
22:00+30юв332270 0.0 101031
30 июля, пт
пт3001:00+28ю342694 0.0 101096
04:00+25з463023 0.0 101173
07:00+26зюз23335 0.0 1011110
10:00+32з232528 0.0 1011910
13:00+36зюз441754 0.0 10103651
16:00+36зюз5515100 0.0 10093860
19:00+35ююз351694 0.0 1008844
22:00+29ю472473 0.0 1009114
31 июля, сб
сб3101:00+27ююз352775 0.0 101074
04:00+25ююз45294 0.0 100970
07:00+26юз35320 0.0 1010135
10:00+32зюз33210 0.0 1010731
13:00+36юз231627 0.0 10093486
16:00+37зюз3215100 0.0 10083862
19:00+36зюз32165 0.0 10092925
22:00+28ююз122535 0.0 101036
1 августа, вс
вс101:00+28всв4641100 0.0 101188
04:00+26всв454715 0.0 101172
07:00+27в354491 0.0 1012126
10:00+33в332814 0.0 1013887
13:00+37в331760 0.0 10113544
16:00+38в33142 0.0 10103848
19:00+37юв44131 0.0 10101014
22:00+31ю34185 0.0 101130
2 августа, пн
пн201:00+28юв33210 0.0 101116
04:00+26ююв22240 0.0 101112
07:00+28ююв23250 0.0 101253
10:00+36ююв23170 0.0 1012847
13:00+39ююв55123 0.0 10103914
16:00+40ююз55120 0.0 10094325
19:00+38юв45145 0.0 10091058
22:00+31юв23195 0.0 100912